[[{"header":{"parameterUnit":"m.s-1","parameterCategory":1,"la1":30.2991,"la2":30.254,"lo1":-89.0895,"lo2":-89.0444,"dy":0.0017,"dx":0.0017,"nx":28,"ny":28,"refTime":"2025-12-11T03:00:00:Z","depth":0,"parameterNumber":2,"parameterNumberName":"U-component_of_WINDS"},"data":[0,0,0,0,0,0,0,0,0,0,0,0,0,0,0,0,0,0,0,0,0,0,0,0,0,0,0,0,0,0,0,0,0,0,0,0,0,0,0,0,0,0,0,0,0,0,0,0,0,0,0,0,0,0,0,0,0,0,3.021,3.0211,0,3.0311,3.0312,3.0313,3.0352,3.0351,3.0351,3.0351,3.0456,3.0459,3.0462,0,0,0,0,0,0,0,0,0,0,0,0,0,3.0057,3.006,3.021,3.0212,3.0213,3.0311,3.0312,3.0314,3.0352,3.0351,3.0351,3.035,3.0455,3.0459,3.0463,0,0,0,0,0,0,0,0,0,0,0,0,0,3.0138,3.0061,3.021,3.0243,3.0247,3.0311,3.0312,3.0314,3.0352,3.0351,3.0351,3.035,3.0454,3.0459,3.0463,3.0501,0,0,3.0477,3.0479,0,0,0,0,0,0,0,0,3.0133,3.0143,3.0237,3.0241,3.0246,3.0318,3.0297,3.0377,3.0352,3.0312,3.0351,3.035,3.0411,3.0419,3.0439,3.0506,3.0511,3.0478,3.0481,3.0483,3.0484,0,0,0,0,0,0,0,3.0127,3.0139,3.025,3.0239,3.0244,3.0256,3.0267,3.0313,3.0363,3.0316,3.0319,3.033,3.0413,3.0434,3.0442,3.0512,3.0478,3.0482,3.0485,3.0486,3.0623,3.0624,0,0,0,0,0,0,3.0116,3.0134,3.0247,3.0253,3.0187,3.0259,3.0271,3.0296,3.0363,3.0372,3.033,3.0331,3.0427,3.0436,3.0446,3.0499,3.0483,3.0487,3.049,3.0622,3.0623,3.0624,0,0,0,0,0,0,3.0112,3.0125,3.0243,3.0195,3.0211,3.0262,3.0289,3.0298,3.0319,3.0374,3.0383,3.0342,3.0427,3.0439,3.0489,3.0503,3.0489,3.0493,3.0621,3.0622,3.0623,3.0602,0,0,0,0,0,0,3.0108,3.0124,3.0137,3.0195,3.0213,3.0282,3.029,3.03,3.0327,3.0329,3.0387,3.0397,3.0427,3.0481,3.0493,3.0509,3.0497,3.062,3.0622,3.0623,3.0601,3.0602,3.0603,0,0,0,0,0,3.0102,3.0126,3.0137,3.015,3.023,3.0282,3.0293,3.0327,3.0327,3.0343,3.0379,3.0395,3.0499,3.0486,3.05,3.0517,3.0619,3.0621,3.0623,3.0601,3.0602,3.0603,0,0,0,0,0,0,3.0067,3.0134,3.0147,3.019,3.023,3.0289,3.0308,3.0326,3.0367,3.0368,3.041,3.0423,3.047,3.0498,3.0482,3.0561,3.0561,3.0565,3.054,3.0541,3.0541,3.0534,3.0501,0,0,0,0,0,3.0065,3.01,3.0157,3.019,3.0209,3.0255,3.0279,3.0303,3.0347,3.0364,3.0403,3.0446,3.049,3.0517,3.0559,3.0607,3.0622,3.0626,3.0626,3.0627,3.063,3.0663,3.0666,3.063,3.063,3.063,0,0,3.0059,3.01,3.012,3.0184,3.0218,3.0256,3.0269,3.0308,3.0338,3.037,3.0419,3.0451,3.0502,3.0552,3.0576,3.0577,3.0644,3.0629,3.0629,3.0632,3.0665,3.0668,3.0671,3.0631,3.0631,3.0631,0,0,3.007,3.0103,3.0136,3.0171,3.0223,3.0254,3.0262,3.032,3.0342,3.0392,3.0419,3.0457,3.0528,3.0566,3.0594,3.0626,3.0643,3.0638,3.0641,3.0672,3.0675,3.0678,3.0692,3.0697,3.0642,3.0642,3.0642,0,3.0056,3.0113,3.015,3.0189,3.0219,3.0251,3.0287,3.0319,3.0383,3.0404,3.0405,3.05,3.0536,3.0598,3.0606,3.0627,3.064,3.0631,3.0672,3.0675,3.0678,3.0692,3.0697,3.0641,3.0641,3.0641,3.0641,0,3.0097,3.0137,3.0157,3.0219,3.0251,3.0288,3.0333,3.0362,3.0384,3.0417,3.0471,3.0517,3.0572,3.0589,3.0609,3.0655,3.0655,3.0663,3.0664,3.068,3.0694,3.07,3.064,3.064,3.064,3.0641,0,0,3.0083,3.0169,3.0176,3.0207,3.027,3.0302,3.0344,3.0398,3.0423,3.0467,3.0505,3.0569,3.0579,3.0611,3.0638,3.0665,3.0692,3.0671,3.0673,3.0675,3.0749,3.0743,3.0748,3.0705,3.0706,3.0707,3.0746,0,3.0103,3.0176,3.0214,3.0272,3.0312,3.0347,3.0383,3.0428,3.0461,3.0502,3.0539,3.0585,3.0593,3.0613,3.0642,3.0682,3.0708,3.068,3.0743,3.0745,3.0729,3.0755,3.0747,3.0781,3.0751,3.0752,3.0753,0,3.0134,3.018,3.0242,3.0306,3.0324,3.0356,3.0411,3.0449,3.0502,3.0525,3.0564,3.0592,3.064,3.0639,3.0709,3.069,3.0719,3.0743,3.0746,3.0753,3.0749,3.0764,3.0792,3.0797,3.0761,3.0761,3.076,0,3.0122,3.0199,3.0247,3.0272,3.0347,3.0369,3.0402,3.0454,3.0486,3.0536,3.0558,3.0612,3.0642,3.0685,3.0729,3.0723,3.0796,3.0797,3.0819,3.0818,3.0831,3.083,3.0865,3.0849,3.0849,3.0848,3.0848,0,3.014,3.0177,3.0243,3.0273,3.0318,3.0363,3.0407,3.0442,3.049,3.053,3.0564,3.0601,3.0656,3.0701,3.0735,3.0791,3.0803,3.0825,3.0834,3.0822,3.082,3.0841,3.084,3.085,3.085,3.0849,3.0849,0,3.0132,3.0177,3.0233,3.03,3.0319,3.0349,3.0408,3.0441,3.0478,3.0528,3.0543,3.0601,3.0657,3.0705,3.0778,3.0802,3.0859,3.0869,3.0841,3.0846,3.0865,3.0863,3.0916,3.0926,3.0902,3.0902,3.0902,0,3.014,3.017,3.0242,3.0271,3.0303,3.0349,3.0383,3.0431,3.0465,3.0532,3.0557,3.0616,3.0664,3.0753,3.0803,3.0861,3.0874,3.0889,3.0882,3.0872,3.0876,3.0874,3.0879,3.0888,3.0888,3.0888,3.0888,0,3.0151,3.0174,3.022,3.0276,3.0316,3.0362,3.041,3.0433,3.049,3.0528,3.0585,3.0624,3.0701,3.0759,3.0824,3.086,3.0885,3.089,3.0899,3.0887,3.087,3.0882,3.0843,3.0888,3.0888,3.0888,3.0888,3.0888,3.0153,3.0183,3.024,3.0292,3.0334,3.0379,3.0414,3.0457,3.0506,3.0571,3.0598,3.0658,3.0717,3.0806,3.0843,3.0893,3.0897,3.0908,3.0911,3.0914,3.0913,3.0863,3.0905,3.0905,3.0905,3.0905,3.0905,0,3.0167,3.0207,3.0255,3.0322,3.0364,3.0385,3.0441,3.0475,3.0527,3.058,3.0629,3.0698,3.0757,3.0814,3.0877,3.0907,3.092,3.0922,3.092,3.0929,3.0905,3.0892,3.091,3.091,3.091,3.091,3.091,3.091,3.018,3.0233,3.0263,3.034,3.038,3.0438,3.0469,3.0513,3.0556,3.0631,3.068,3.0718,3.0774,3.0842,3.0899,3.0915,3.0937,3.0936,3.0955,3.0931,3.093,3.0929,3.0917,3.094,3.094,3.0976,3.0976,3.0976]},{"header":{"parameterUnit":"m.s-1","parameterCategory":1,"la1":30.2991,"la2":30.254,"lo1":-89.0895,"lo2":-89.0444,"dy":0.0017,"dx":0.0017,"nx":28,"ny":28,"refTime":"2025-12-11T03:00:00:Z","depth":0,"parameterNumber":3,"parameterNumberName":"V-component_of_WINDS"},"data":[0,0,0,0,0,0,0,0,0,0,0,0,0,0,0,0,0,0,0,0,0,0,0,0,0,0,0,0,0,0,0,0,0,0,0,0,0,0,0,0,0,0,0,0,0,0,0,0,0,0,0,0,0,0,0,0,0,0,2.2448,2.2449,0,2.2546,2.2547,2.2548,2.258,2.258,2.2579,2.2579,2.2673,2.2676,2.2679,0,0,0,0,0,0,0,0,0,0,0,0,0,2.2284,2.2286,2.2448,2.2449,2.2451,2.2546,2.2547,2.2549,2.258,2.258,2.2579,2.2579,2.2672,2.2676,2.2679,0,0,0,0,0,0,0,0,0,0,0,0,0,2.2365,2.2287,2.2448,2.2478,2.2482,2.2546,2.2547,2.2549,2.258,2.2579,2.2579,2.2578,2.2671,2.2676,2.268,2.2719,0,0,2.2693,2.2695,0,0,0,0,0,0,0,0,2.2361,2.2371,2.2472,2.2476,2.248,2.255,2.2524,2.2606,2.258,2.2543,2.2579,2.2578,2.2633,2.264,2.266,2.2724,2.2728,2.2694,2.2696,2.2698,2.2699,0,0,0,0,0,0,0,2.2355,2.2367,2.2487,2.2474,2.2479,2.2485,2.2496,2.254,2.259,2.2546,2.2548,2.256,2.2635,2.2655,2.2662,2.2729,2.2693,2.2697,2.27,2.2702,2.2831,2.2832,0,0,0,0,0,0,2.2345,2.2362,2.2484,2.249,2.2418,2.2488,2.2501,2.2528,2.2589,2.2598,2.256,2.2561,2.2648,2.2657,2.2666,2.2717,2.2698,2.2702,2.2705,2.283,2.2831,2.2832,0,0,0,0,0,0,2.2341,2.2356,2.248,2.2427,2.2443,2.2492,2.2523,2.2531,2.2552,2.26,2.2609,2.2573,2.2648,2.2659,2.2706,2.272,2.2704,2.2708,2.2829,2.283,2.2832,2.2818,0,0,0,0,0,0,2.2337,2.2354,2.2371,2.2427,2.2446,2.252,2.2524,2.2533,2.256,2.2561,2.2614,2.2622,2.2648,2.27,2.2711,2.2726,2.2712,2.2828,2.283,2.2831,2.2818,2.2819,2.282,0,0,0,0,0,2.2331,2.2362,2.2372,2.2386,2.2468,2.2521,2.2532,2.2563,2.2561,2.2577,2.2609,2.2621,2.2717,2.2704,2.2717,2.2734,2.2827,2.2829,2.2831,2.2817,2.2819,2.282,0,0,0,0,0,0,2.2304,2.237,2.2381,2.2432,2.2471,2.2526,2.2548,2.2563,2.2602,2.2602,2.2637,2.2648,2.2693,2.2718,2.2702,2.2775,2.2772,2.2777,2.2757,2.2759,2.276,2.2754,2.2715,0,0,0,0,0,2.2305,2.2344,2.2398,2.2438,2.2457,2.2499,2.2523,2.2544,2.2585,2.2601,2.2636,2.2673,2.2712,2.2737,2.2775,2.2821,2.2833,2.2839,2.284,2.284,2.2844,2.287,2.2873,2.2838,2.2838,2.2838,0,0,2.2305,2.2346,2.2368,2.2434,2.2466,2.2505,2.2513,2.2553,2.2581,2.2606,2.2654,2.268,2.2724,2.2771,2.2793,2.2793,2.2856,2.2843,2.2843,2.2846,2.2872,2.2876,2.2879,2.2839,2.2839,2.2839,0,0,2.2326,2.2361,2.2398,2.2431,2.2481,2.2509,2.2518,2.2571,2.2591,2.2639,2.2659,2.2692,2.2758,2.2789,2.2813,2.2846,2.2859,2.2857,2.2863,2.2888,2.2891,2.2894,2.2906,2.291,2.286,2.286,2.286,0,2.232,2.2381,2.2415,2.2455,2.2483,2.2509,2.2546,2.2576,2.2634,2.2652,2.2652,2.2736,2.2767,2.2822,2.283,2.2848,2.2859,2.2852,2.2888,2.2891,2.2894,2.2906,2.291,2.286,2.286,2.286,2.286,0,2.2371,2.2413,2.2436,2.2495,2.2526,2.2564,2.2602,2.2628,2.2646,2.2673,2.2722,2.276,2.2807,2.2821,2.2838,2.2878,2.2877,2.2882,2.288,2.2896,2.2908,2.2913,2.2859,2.2859,2.286,2.286,0,0,2.2379,2.2457,2.2465,2.2492,2.2549,2.2581,2.2619,2.2667,2.2689,2.2728,2.2761,2.2816,2.2822,2.2849,2.287,2.2891,2.2915,2.2894,2.2895,2.2897,2.2962,2.2959,2.2963,2.2924,2.2925,2.2926,2.2958,0,2.2408,2.2481,2.2512,2.257,2.2608,2.2634,2.2667,2.2705,2.2731,2.2767,2.2795,2.2834,2.2838,2.2854,2.2877,2.2908,2.2929,2.2906,2.2954,2.2955,2.2943,2.297,2.2966,2.2996,2.2963,2.2964,2.2965,0,2.2451,2.2493,2.2556,2.2609,2.2626,2.2656,2.2702,2.2736,2.2779,2.2796,2.2827,2.2847,2.2887,2.2882,2.2937,2.2921,2.2942,2.296,2.2961,2.2968,2.2962,2.2977,2.3006,2.301,2.2972,2.2971,2.2971,0,2.2451,2.2523,2.257,2.2592,2.2655,2.2675,2.2702,2.2744,2.2771,2.2811,2.2828,2.2871,2.2895,2.2927,2.2957,2.295,2.3009,2.3007,2.3024,2.3024,2.3036,2.3035,2.3069,2.3048,2.3048,2.3048,2.3048,0,2.2481,2.2518,2.2571,2.26,2.2642,2.2677,2.2717,2.2745,2.2782,2.2816,2.2839,2.2869,2.2907,2.2942,2.2965,2.3008,2.3018,2.3032,2.3038,2.3031,2.3029,2.3046,2.3045,2.305,2.3049,2.3049,2.3049,0,2.2488,2.2525,2.2578,2.2634,2.2648,2.2677,2.2724,2.2752,2.2779,2.2821,2.2833,2.2876,2.2918,2.2952,2.3006,2.3021,2.3066,2.3072,2.3053,2.3056,2.3072,2.307,2.3119,2.3127,2.31,2.31,2.31,0,2.2505,2.2534,2.2594,2.2619,2.2646,2.2686,2.2714,2.2749,2.2777,2.2828,2.285,2.2894,2.2932,2.2998,2.3033,2.3074,2.3082,2.3096,2.3088,2.308,2.3083,2.3081,2.3085,2.3097,2.3097,2.3097,2.3097,0,2.2531,2.2548,2.2589,2.2636,2.2669,2.2707,2.2746,2.2765,2.2806,2.2836,2.2881,2.291,2.2967,2.3011,2.3056,2.3081,2.3096,2.3099,2.3106,2.3099,2.3087,2.3095,2.3056,2.3098,2.3098,2.3098,2.3098,2.3098,2.2544,2.2572,2.2618,2.2663,2.2696,2.2732,2.2761,2.2793,2.2832,2.2882,2.29,2.2946,2.2987,2.305,2.3076,2.3111,2.3112,2.3121,2.3124,2.3126,2.3126,2.3081,2.3119,2.3119,2.3119,2.312,2.312,0,2.2572,2.2603,2.2644,2.2698,2.2733,2.2746,2.2789,2.2817,2.2858,2.2896,2.2933,2.2985,2.3027,2.3065,2.3109,2.313,2.3138,2.314,2.314,2.3145,2.3122,2.3112,2.3133,2.3133,2.3133,2.3133,2.3133,2.3133,2.259,2.2638,2.2661,2.2725,2.2756,2.2803,2.2827,2.2859,2.289,2.2948,2.2984,2.3009,2.3047,2.3094,2.3133,2.3143,2.3159,2.316,2.3171,2.3149,2.3147,2.3145,2.3137,2.3162,2.3162,2.3192,2.3192,2.3193]}]]